<?xml version="1.0"?>
<gpx xmlns="http://www.topografix.com/GPX/1/1" xmlns:xsi="http://www.w3.org/2001/XMLSchema-instance" version="1.1" creator="GPX RubyGem 1.0.0 -- http://dougfales.github.io/gpx/" xsi:schemaLocation="http://www.topografix.com/GPX/1/1 http://www.topografix.com/GPX/1/1/gpx.xsd">
  <metadata>
    <name/>
    <time>2026-05-09T23:33:59+00:00</time>
    <bound minlat="90.0" minlon="180.0" maxlat="-90.0" maxlon="-180.0"/>
  </metadata>
  <trk>
    <name/>
    <trkseg>
      <trkpt lat="43.977795" lon="3.236089">
        <time>1970-01-01T00:00:00+00:00</time>
        <ele>713.0</ele>
      </trkpt>
      <trkpt lat="43.977939" lon="3.236034">
        <time>1970-01-01T00:00:00+00:00</time>
        <ele>713.0</ele>
      </trkpt>
      <trkpt lat="43.978014" lon="3.235964">
        <time>1970-01-01T00:00:00+00:00</time>
        <ele>713.0</ele>
      </trkpt>
      <trkpt lat="43.97807" lon="3.23587">
        <time>1970-01-01T00:00:00+00:00</time>
        <ele>714.0</ele>
      </trkpt>
      <trkpt lat="43.978086" lon="3.236696">
        <time>1970-01-01T00:00:00+00:00</time>
        <ele>715.0</ele>
      </trkpt>
      <trkpt lat="43.978459" lon="3.238137">
        <time>1970-01-01T00:00:00+00:00</time>
        <ele>720.0</ele>
      </trkpt>
      <trkpt lat="43.978557" lon="3.238323">
        <time>1970-01-01T00:00:00+00:00</time>
        <ele>721.0</ele>
      </trkpt>
      <trkpt lat="43.978829" lon="3.238612">
        <time>1970-01-01T00:00:00+00:00</time>
        <ele>723.0</ele>
      </trkpt>
      <trkpt lat="43.97899" lon="3.238737">
        <time>1970-01-01T00:00:00+00:00</time>
        <ele>723.0</ele>
      </trkpt>
      <trkpt lat="43.979196" lon="3.238829">
        <time>1970-01-01T00:00:00+00:00</time>
        <ele>725.0</ele>
      </trkpt>
      <trkpt lat="43.980627" lon="3.239021">
        <time>1970-01-01T00:00:00+00:00</time>
        <ele>737.0</ele>
      </trkpt>
      <trkpt lat="43.981523" lon="3.239201">
        <time>1970-01-01T00:00:00+00:00</time>
        <ele>742.0</ele>
      </trkpt>
      <trkpt lat="43.981901" lon="3.239413">
        <time>1970-01-01T00:00:00+00:00</time>
        <ele>744.0</ele>
      </trkpt>
      <trkpt lat="43.982504" lon="3.239877">
        <time>1970-01-01T00:00:00+00:00</time>
        <ele>749.0</ele>
      </trkpt>
      <trkpt lat="43.982597" lon="3.240065">
        <time>1970-01-01T00:00:00+00:00</time>
        <ele>749.0</ele>
      </trkpt>
      <trkpt lat="43.982619" lon="3.240181">
        <time>1970-01-01T00:00:00+00:00</time>
        <ele>750.0</ele>
      </trkpt>
      <trkpt lat="43.982598" lon="3.240305">
        <time>1970-01-01T00:00:00+00:00</time>
        <ele>751.0</ele>
      </trkpt>
      <trkpt lat="43.982547" lon="3.240426">
        <time>1970-01-01T00:00:00+00:00</time>
        <ele>751.0</ele>
      </trkpt>
      <trkpt lat="43.982341" lon="3.240658">
        <time>1970-01-01T00:00:00+00:00</time>
        <ele>751.0</ele>
      </trkpt>
      <trkpt lat="43.982132" lon="3.241019">
        <time>1970-01-01T00:00:00+00:00</time>
        <ele>749.0</ele>
      </trkpt>
      <trkpt lat="43.982072" lon="3.241189">
        <time>1970-01-01T00:00:00+00:00</time>
        <ele>748.0</ele>
      </trkpt>
      <trkpt lat="43.982076" lon="3.241347">
        <time>1970-01-01T00:00:00+00:00</time>
        <ele>748.0</ele>
      </trkpt>
      <trkpt lat="43.982119" lon="3.241469">
        <time>1970-01-01T00:00:00+00:00</time>
        <ele>749.0</ele>
      </trkpt>
      <trkpt lat="43.982181" lon="3.241503">
        <time>1970-01-01T00:00:00+00:00</time>
        <ele>750.0</ele>
      </trkpt>
      <trkpt lat="43.982247" lon="3.242866">
        <time>1970-01-01T00:00:00+00:00</time>
        <ele>747.0</ele>
      </trkpt>
      <trkpt lat="43.982236" lon="3.243172">
        <time>1970-01-01T00:00:00+00:00</time>
        <ele>745.0</ele>
      </trkpt>
      <trkpt lat="43.982302" lon="3.243406">
        <time>1970-01-01T00:00:00+00:00</time>
        <ele>744.0</ele>
      </trkpt>
      <trkpt lat="43.982303" lon="3.243546">
        <time>1970-01-01T00:00:00+00:00</time>
        <ele>744.0</ele>
      </trkpt>
      <trkpt lat="43.982187" lon="3.243842">
        <time>1970-01-01T00:00:00+00:00</time>
        <ele>742.0</ele>
      </trkpt>
      <trkpt lat="43.982055" lon="3.244338">
        <time>1970-01-01T00:00:00+00:00</time>
        <ele>741.0</ele>
      </trkpt>
      <trkpt lat="43.982031" lon="3.244633">
        <time>1970-01-01T00:00:00+00:00</time>
        <ele>740.0</ele>
      </trkpt>
      <trkpt lat="43.98202" lon="3.24516">
        <time>1970-01-01T00:00:00+00:00</time>
        <ele>739.0</ele>
      </trkpt>
      <trkpt lat="43.981934" lon="3.245639">
        <time>1970-01-01T00:00:00+00:00</time>
        <ele>737.0</ele>
      </trkpt>
      <trkpt lat="43.981932" lon="3.245844">
        <time>1970-01-01T00:00:00+00:00</time>
        <ele>738.0</ele>
      </trkpt>
      <trkpt lat="43.981876" lon="3.246003">
        <time>1970-01-01T00:00:00+00:00</time>
        <ele>738.0</ele>
      </trkpt>
      <trkpt lat="43.981451" lon="3.246615">
        <time>1970-01-01T00:00:00+00:00</time>
        <ele>738.0</ele>
      </trkpt>
      <trkpt lat="43.981256" lon="3.246793">
        <time>1970-01-01T00:00:00+00:00</time>
        <ele>737.0</ele>
      </trkpt>
      <trkpt lat="43.981124" lon="3.246993">
        <time>1970-01-01T00:00:00+00:00</time>
        <ele>735.0</ele>
      </trkpt>
      <trkpt lat="43.980969" lon="3.24718">
        <time>1970-01-01T00:00:00+00:00</time>
        <ele>734.0</ele>
      </trkpt>
      <trkpt lat="43.980917" lon="3.247258">
        <time>1970-01-01T00:00:00+00:00</time>
        <ele>734.0</ele>
      </trkpt>
      <trkpt lat="43.980911" lon="3.247318">
        <time>1970-01-01T00:00:00+00:00</time>
        <ele>734.0</ele>
      </trkpt>
      <trkpt lat="43.98084" lon="3.247416">
        <time>1970-01-01T00:00:00+00:00</time>
        <ele>734.0</ele>
      </trkpt>
      <trkpt lat="43.980777" lon="3.24746">
        <time>1970-01-01T00:00:00+00:00</time>
        <ele>734.0</ele>
      </trkpt>
      <trkpt lat="43.980515" lon="3.247533">
        <time>1970-01-01T00:00:00+00:00</time>
        <ele>732.0</ele>
      </trkpt>
      <trkpt lat="43.980339" lon="3.247657">
        <time>1970-01-01T00:00:00+00:00</time>
        <ele>731.0</ele>
      </trkpt>
      <trkpt lat="43.980089" lon="3.247896">
        <time>1970-01-01T00:00:00+00:00</time>
        <ele>729.0</ele>
      </trkpt>
      <trkpt lat="43.979862" lon="3.247996">
        <time>1970-01-01T00:00:00+00:00</time>
        <ele>729.0</ele>
      </trkpt>
      <trkpt lat="43.979857" lon="3.24808">
        <time>1970-01-01T00:00:00+00:00</time>
        <ele>729.0</ele>
      </trkpt>
      <trkpt lat="43.979786" lon="3.248166">
        <time>1970-01-01T00:00:00+00:00</time>
        <ele>729.0</ele>
      </trkpt>
      <trkpt lat="43.979531" lon="3.248761">
        <time>1970-01-01T00:00:00+00:00</time>
        <ele>726.0</ele>
      </trkpt>
      <trkpt lat="43.979379" lon="3.249008">
        <time>1970-01-01T00:00:00+00:00</time>
        <ele>723.0</ele>
      </trkpt>
      <trkpt lat="43.979149" lon="3.249574">
        <time>1970-01-01T00:00:00+00:00</time>
        <ele>716.0</ele>
      </trkpt>
      <trkpt lat="43.979043" lon="3.249676">
        <time>1970-01-01T00:00:00+00:00</time>
        <ele>715.0</ele>
      </trkpt>
      <trkpt lat="43.979004" lon="3.249923">
        <time>1970-01-01T00:00:00+00:00</time>
        <ele>712.0</ele>
      </trkpt>
      <trkpt lat="43.978968" lon="3.249984">
        <time>1970-01-01T00:00:00+00:00</time>
        <ele>711.0</ele>
      </trkpt>
      <trkpt lat="43.978873" lon="3.250017">
        <time>1970-01-01T00:00:00+00:00</time>
        <ele>711.0</ele>
      </trkpt>
      <trkpt lat="43.978771" lon="3.250086">
        <time>1970-01-01T00:00:00+00:00</time>
        <ele>710.0</ele>
      </trkpt>
      <trkpt lat="43.978707" lon="3.2501">
        <time>1970-01-01T00:00:00+00:00</time>
        <ele>710.0</ele>
      </trkpt>
      <trkpt lat="43.978651" lon="3.250178">
        <time>1970-01-01T00:00:00+00:00</time>
        <ele>708.0</ele>
      </trkpt>
      <trkpt lat="43.978601" lon="3.250183">
        <time>1970-01-01T00:00:00+00:00</time>
        <ele>709.0</ele>
      </trkpt>
      <trkpt lat="43.978535" lon="3.250135">
        <time>1970-01-01T00:00:00+00:00</time>
        <ele>710.0</ele>
      </trkpt>
      <trkpt lat="43.978479" lon="3.249998">
        <time>1970-01-01T00:00:00+00:00</time>
        <ele>712.0</ele>
      </trkpt>
      <trkpt lat="43.978433" lon="3.24996">
        <time>1970-01-01T00:00:00+00:00</time>
        <ele>713.0</ele>
      </trkpt>
      <trkpt lat="43.978381" lon="3.249939">
        <time>1970-01-01T00:00:00+00:00</time>
        <ele>713.0</ele>
      </trkpt>
      <trkpt lat="43.978317" lon="3.249947">
        <time>1970-01-01T00:00:00+00:00</time>
        <ele>713.0</ele>
      </trkpt>
      <trkpt lat="43.97828" lon="3.249974">
        <time>1970-01-01T00:00:00+00:00</time>
        <ele>713.0</ele>
      </trkpt>
      <trkpt lat="43.978263" lon="3.250247">
        <time>1970-01-01T00:00:00+00:00</time>
        <ele>709.0</ele>
      </trkpt>
      <trkpt lat="43.978292" lon="3.250151">
        <time>1970-01-01T00:00:00+00:00</time>
        <ele>710.0</ele>
      </trkpt>
      <trkpt lat="43.978346" lon="3.250153">
        <time>1970-01-01T00:00:00+00:00</time>
        <ele>710.0</ele>
      </trkpt>
      <trkpt lat="43.978421" lon="3.250226">
        <time>1970-01-01T00:00:00+00:00</time>
        <ele>709.0</ele>
      </trkpt>
      <trkpt lat="43.978508" lon="3.250408">
        <time>1970-01-01T00:00:00+00:00</time>
        <ele>705.0</ele>
      </trkpt>
      <trkpt lat="43.978483" lon="3.250518">
        <time>1970-01-01T00:00:00+00:00</time>
        <ele>703.0</ele>
      </trkpt>
      <trkpt lat="43.978425" lon="3.250609">
        <time>1970-01-01T00:00:00+00:00</time>
        <ele>702.0</ele>
      </trkpt>
      <trkpt lat="43.978429" lon="3.250743">
        <time>1970-01-01T00:00:00+00:00</time>
        <ele>700.0</ele>
      </trkpt>
      <trkpt lat="43.978485" lon="3.250864">
        <time>1970-01-01T00:00:00+00:00</time>
        <ele>698.0</ele>
      </trkpt>
      <trkpt lat="43.978663" lon="3.250907">
        <time>1970-01-01T00:00:00+00:00</time>
        <ele>697.0</ele>
      </trkpt>
      <trkpt lat="43.978697" lon="3.250964">
        <time>1970-01-01T00:00:00+00:00</time>
        <ele>696.0</ele>
      </trkpt>
      <trkpt lat="43.978808" lon="3.250823">
        <time>1970-01-01T00:00:00+00:00</time>
        <ele>697.0</ele>
      </trkpt>
      <trkpt lat="43.978964" lon="3.250757">
        <time>1970-01-01T00:00:00+00:00</time>
        <ele>697.0</ele>
      </trkpt>
      <trkpt lat="43.979191" lon="3.250715">
        <time>1970-01-01T00:00:00+00:00</time>
        <ele>696.0</ele>
      </trkpt>
      <trkpt lat="43.979799" lon="3.250664">
        <time>1970-01-01T00:00:00+00:00</time>
        <ele>698.0</ele>
      </trkpt>
      <trkpt lat="43.98026" lon="3.250504">
        <time>1970-01-01T00:00:00+00:00</time>
        <ele>704.0</ele>
      </trkpt>
      <trkpt lat="43.980471" lon="3.250397">
        <time>1970-01-01T00:00:00+00:00</time>
        <ele>707.0</ele>
      </trkpt>
      <trkpt lat="43.980733" lon="3.250328">
        <time>1970-01-01T00:00:00+00:00</time>
        <ele>712.0</ele>
      </trkpt>
      <trkpt lat="43.980846" lon="3.250338">
        <time>1970-01-01T00:00:00+00:00</time>
        <ele>713.0</ele>
      </trkpt>
      <trkpt lat="43.981052" lon="3.250641">
        <time>1970-01-01T00:00:00+00:00</time>
        <ele>713.0</ele>
      </trkpt>
      <trkpt lat="43.98115" lon="3.25062">
        <time>1970-01-01T00:00:00+00:00</time>
        <ele>714.0</ele>
      </trkpt>
      <trkpt lat="43.981222" lon="3.250716">
        <time>1970-01-01T00:00:00+00:00</time>
        <ele>714.0</ele>
      </trkpt>
      <trkpt lat="43.981286" lon="3.25075">
        <time>1970-01-01T00:00:00+00:00</time>
        <ele>714.0</ele>
      </trkpt>
      <trkpt lat="43.981526" lon="3.250689">
        <time>1970-01-01T00:00:00+00:00</time>
        <ele>715.0</ele>
      </trkpt>
      <trkpt lat="43.981709" lon="3.250692">
        <time>1970-01-01T00:00:00+00:00</time>
        <ele>716.0</ele>
      </trkpt>
      <trkpt lat="43.981806" lon="3.250713">
        <time>1970-01-01T00:00:00+00:00</time>
        <ele>716.0</ele>
      </trkpt>
      <trkpt lat="43.981869" lon="3.250685">
        <time>1970-01-01T00:00:00+00:00</time>
        <ele>716.0</ele>
      </trkpt>
      <trkpt lat="43.981916" lon="3.250699">
        <time>1970-01-01T00:00:00+00:00</time>
        <ele>717.0</ele>
      </trkpt>
      <trkpt lat="43.981937" lon="3.250824">
        <time>1970-01-01T00:00:00+00:00</time>
        <ele>717.0</ele>
      </trkpt>
      <trkpt lat="43.981787" lon="3.250903">
        <time>1970-01-01T00:00:00+00:00</time>
        <ele>717.0</ele>
      </trkpt>
      <trkpt lat="43.981731" lon="3.250906">
        <time>1970-01-01T00:00:00+00:00</time>
        <ele>716.0</ele>
      </trkpt>
      <trkpt lat="43.981649" lon="3.250835">
        <time>1970-01-01T00:00:00+00:00</time>
        <ele>716.0</ele>
      </trkpt>
      <trkpt lat="43.98152" lon="3.250961">
        <time>1970-01-01T00:00:00+00:00</time>
        <ele>715.0</ele>
      </trkpt>
      <trkpt lat="43.98135" lon="3.250974">
        <time>1970-01-01T00:00:00+00:00</time>
        <ele>714.0</ele>
      </trkpt>
      <trkpt lat="43.981334" lon="3.251014">
        <time>1970-01-01T00:00:00+00:00</time>
        <ele>714.0</ele>
      </trkpt>
      <trkpt lat="43.981334" lon="3.251014">
        <time>1970-01-01T00:00:00+00:00</time>
        <ele>714.0</ele>
      </trkpt>
      <trkpt lat="43.98135" lon="3.250974">
        <time>1970-01-01T00:00:00+00:00</time>
        <ele>714.0</ele>
      </trkpt>
      <trkpt lat="43.98152" lon="3.250961">
        <time>1970-01-01T00:00:00+00:00</time>
        <ele>715.0</ele>
      </trkpt>
      <trkpt lat="43.981649" lon="3.250835">
        <time>1970-01-01T00:00:00+00:00</time>
        <ele>716.0</ele>
      </trkpt>
      <trkpt lat="43.981731" lon="3.250906">
        <time>1970-01-01T00:00:00+00:00</time>
        <ele>716.0</ele>
      </trkpt>
      <trkpt lat="43.981787" lon="3.250903">
        <time>1970-01-01T00:00:00+00:00</time>
        <ele>717.0</ele>
      </trkpt>
      <trkpt lat="43.981937" lon="3.250824">
        <time>1970-01-01T00:00:00+00:00</time>
        <ele>717.0</ele>
      </trkpt>
      <trkpt lat="43.981916" lon="3.250699">
        <time>1970-01-01T00:00:00+00:00</time>
        <ele>717.0</ele>
      </trkpt>
      <trkpt lat="43.981869" lon="3.250685">
        <time>1970-01-01T00:00:00+00:00</time>
        <ele>716.0</ele>
      </trkpt>
      <trkpt lat="43.981806" lon="3.250713">
        <time>1970-01-01T00:00:00+00:00</time>
        <ele>716.0</ele>
      </trkpt>
      <trkpt lat="43.981709" lon="3.250692">
        <time>1970-01-01T00:00:00+00:00</time>
        <ele>716.0</ele>
      </trkpt>
      <trkpt lat="43.981526" lon="3.250689">
        <time>1970-01-01T00:00:00+00:00</time>
        <ele>715.0</ele>
      </trkpt>
      <trkpt lat="43.981286" lon="3.25075">
        <time>1970-01-01T00:00:00+00:00</time>
        <ele>714.0</ele>
      </trkpt>
      <trkpt lat="43.981222" lon="3.250716">
        <time>1970-01-01T00:00:00+00:00</time>
        <ele>714.0</ele>
      </trkpt>
      <trkpt lat="43.98115" lon="3.25062">
        <time>1970-01-01T00:00:00+00:00</time>
        <ele>714.0</ele>
      </trkpt>
      <trkpt lat="43.981052" lon="3.250641">
        <time>1970-01-01T00:00:00+00:00</time>
        <ele>713.0</ele>
      </trkpt>
      <trkpt lat="43.980846" lon="3.250338">
        <time>1970-01-01T00:00:00+00:00</time>
        <ele>713.0</ele>
      </trkpt>
      <trkpt lat="43.980733" lon="3.250328">
        <time>1970-01-01T00:00:00+00:00</time>
        <ele>712.0</ele>
      </trkpt>
      <trkpt lat="43.980471" lon="3.250397">
        <time>1970-01-01T00:00:00+00:00</time>
        <ele>707.0</ele>
      </trkpt>
      <trkpt lat="43.98026" lon="3.250504">
        <time>1970-01-01T00:00:00+00:00</time>
        <ele>704.0</ele>
      </trkpt>
      <trkpt lat="43.979799" lon="3.250664">
        <time>1970-01-01T00:00:00+00:00</time>
        <ele>698.0</ele>
      </trkpt>
      <trkpt lat="43.979191" lon="3.250715">
        <time>1970-01-01T00:00:00+00:00</time>
        <ele>696.0</ele>
      </trkpt>
      <trkpt lat="43.978964" lon="3.250757">
        <time>1970-01-01T00:00:00+00:00</time>
        <ele>697.0</ele>
      </trkpt>
      <trkpt lat="43.978808" lon="3.250823">
        <time>1970-01-01T00:00:00+00:00</time>
        <ele>697.0</ele>
      </trkpt>
      <trkpt lat="43.978697" lon="3.250964">
        <time>1970-01-01T00:00:00+00:00</time>
        <ele>696.0</ele>
      </trkpt>
      <trkpt lat="43.978503" lon="3.251193">
        <time>1970-01-01T00:00:00+00:00</time>
        <ele>695.0</ele>
      </trkpt>
      <trkpt lat="43.978312" lon="3.251356">
        <time>1970-01-01T00:00:00+00:00</time>
        <ele>695.0</ele>
      </trkpt>
      <trkpt lat="43.97822" lon="3.251433">
        <time>1970-01-01T00:00:00+00:00</time>
        <ele>695.0</ele>
      </trkpt>
      <trkpt lat="43.978137" lon="3.251441">
        <time>1970-01-01T00:00:00+00:00</time>
        <ele>695.0</ele>
      </trkpt>
      <trkpt lat="43.977909" lon="3.251331">
        <time>1970-01-01T00:00:00+00:00</time>
        <ele>697.0</ele>
      </trkpt>
      <trkpt lat="43.977798" lon="3.251302">
        <time>1970-01-01T00:00:00+00:00</time>
        <ele>698.0</ele>
      </trkpt>
      <trkpt lat="43.977745" lon="3.251249">
        <time>1970-01-01T00:00:00+00:00</time>
        <ele>699.0</ele>
      </trkpt>
      <trkpt lat="43.97767" lon="3.251244">
        <time>1970-01-01T00:00:00+00:00</time>
        <ele>699.0</ele>
      </trkpt>
      <trkpt lat="43.977629" lon="3.251179">
        <time>1970-01-01T00:00:00+00:00</time>
        <ele>700.0</ele>
      </trkpt>
      <trkpt lat="43.977535" lon="3.251167">
        <time>1970-01-01T00:00:00+00:00</time>
        <ele>700.0</ele>
      </trkpt>
      <trkpt lat="43.977506" lon="3.251095">
        <time>1970-01-01T00:00:00+00:00</time>
        <ele>700.0</ele>
      </trkpt>
      <trkpt lat="43.977497" lon="3.251014">
        <time>1970-01-01T00:00:00+00:00</time>
        <ele>701.0</ele>
      </trkpt>
      <trkpt lat="43.977397" lon="3.250664">
        <time>1970-01-01T00:00:00+00:00</time>
        <ele>703.0</ele>
      </trkpt>
      <trkpt lat="43.977359" lon="3.250576">
        <time>1970-01-01T00:00:00+00:00</time>
        <ele>704.0</ele>
      </trkpt>
      <trkpt lat="43.977244" lon="3.250432">
        <time>1970-01-01T00:00:00+00:00</time>
        <ele>705.0</ele>
      </trkpt>
      <trkpt lat="43.977192" lon="3.250408">
        <time>1970-01-01T00:00:00+00:00</time>
        <ele>705.0</ele>
      </trkpt>
      <trkpt lat="43.977082" lon="3.250431">
        <time>1970-01-01T00:00:00+00:00</time>
        <ele>704.0</ele>
      </trkpt>
      <trkpt lat="43.976979" lon="3.250474">
        <time>1970-01-01T00:00:00+00:00</time>
        <ele>703.0</ele>
      </trkpt>
      <trkpt lat="43.97689" lon="3.250573">
        <time>1970-01-01T00:00:00+00:00</time>
        <ele>702.0</ele>
      </trkpt>
      <trkpt lat="43.97674" lon="3.250614">
        <time>1970-01-01T00:00:00+00:00</time>
        <ele>701.0</ele>
      </trkpt>
      <trkpt lat="43.976636" lon="3.25058">
        <time>1970-01-01T00:00:00+00:00</time>
        <ele>701.0</ele>
      </trkpt>
      <trkpt lat="43.976541" lon="3.250588">
        <time>1970-01-01T00:00:00+00:00</time>
        <ele>701.0</ele>
      </trkpt>
      <trkpt lat="43.976406" lon="3.250568">
        <time>1970-01-01T00:00:00+00:00</time>
        <ele>701.0</ele>
      </trkpt>
      <trkpt lat="43.976145" lon="3.250455">
        <time>1970-01-01T00:00:00+00:00</time>
        <ele>701.0</ele>
      </trkpt>
      <trkpt lat="43.976132" lon="3.250288">
        <time>1970-01-01T00:00:00+00:00</time>
        <ele>702.0</ele>
      </trkpt>
      <trkpt lat="43.976103" lon="3.250215">
        <time>1970-01-01T00:00:00+00:00</time>
        <ele>703.0</ele>
      </trkpt>
      <trkpt lat="43.976082" lon="3.25006">
        <time>1970-01-01T00:00:00+00:00</time>
        <ele>704.0</ele>
      </trkpt>
      <trkpt lat="43.976106" lon="3.249996">
        <time>1970-01-01T00:00:00+00:00</time>
        <ele>705.0</ele>
      </trkpt>
      <trkpt lat="43.976097" lon="3.250042">
        <time>1970-01-01T00:00:00+00:00</time>
        <ele>704.0</ele>
      </trkpt>
      <trkpt lat="43.976066" lon="3.250076">
        <time>1970-01-01T00:00:00+00:00</time>
        <ele>704.0</ele>
      </trkpt>
      <trkpt lat="43.975842" lon="3.250128">
        <time>1970-01-01T00:00:00+00:00</time>
        <ele>702.0</ele>
      </trkpt>
      <trkpt lat="43.97564" lon="3.250218">
        <time>1970-01-01T00:00:00+00:00</time>
        <ele>700.0</ele>
      </trkpt>
      <trkpt lat="43.975317" lon="3.250241">
        <time>1970-01-01T00:00:00+00:00</time>
        <ele>697.0</ele>
      </trkpt>
      <trkpt lat="43.975018" lon="3.250313">
        <time>1970-01-01T00:00:00+00:00</time>
        <ele>695.0</ele>
      </trkpt>
      <trkpt lat="43.974965" lon="3.250279">
        <time>1970-01-01T00:00:00+00:00</time>
        <ele>695.0</ele>
      </trkpt>
      <trkpt lat="43.974917" lon="3.250182">
        <time>1970-01-01T00:00:00+00:00</time>
        <ele>695.0</ele>
      </trkpt>
      <trkpt lat="43.974847" lon="3.250147">
        <time>1970-01-01T00:00:00+00:00</time>
        <ele>695.0</ele>
      </trkpt>
      <trkpt lat="43.974714" lon="3.250174">
        <time>1970-01-01T00:00:00+00:00</time>
        <ele>693.0</ele>
      </trkpt>
      <trkpt lat="43.974634" lon="3.250125">
        <time>1970-01-01T00:00:00+00:00</time>
        <ele>694.0</ele>
      </trkpt>
      <trkpt lat="43.974429" lon="3.249893">
        <time>1970-01-01T00:00:00+00:00</time>
        <ele>693.0</ele>
      </trkpt>
      <trkpt lat="43.974259" lon="3.249841">
        <time>1970-01-01T00:00:00+00:00</time>
        <ele>693.0</ele>
      </trkpt>
      <trkpt lat="43.973955" lon="3.249778">
        <time>1970-01-01T00:00:00+00:00</time>
        <ele>694.0</ele>
      </trkpt>
      <trkpt lat="43.973713" lon="3.249801">
        <time>1970-01-01T00:00:00+00:00</time>
        <ele>694.0</ele>
      </trkpt>
      <trkpt lat="43.973535" lon="3.249782">
        <time>1970-01-01T00:00:00+00:00</time>
        <ele>693.0</ele>
      </trkpt>
      <trkpt lat="43.973348" lon="3.249822">
        <time>1970-01-01T00:00:00+00:00</time>
        <ele>691.0</ele>
      </trkpt>
      <trkpt lat="43.973282" lon="3.249775">
        <time>1970-01-01T00:00:00+00:00</time>
        <ele>691.0</ele>
      </trkpt>
      <trkpt lat="43.973109" lon="3.249763">
        <time>1970-01-01T00:00:00+00:00</time>
        <ele>690.0</ele>
      </trkpt>
      <trkpt lat="43.972911" lon="3.249691">
        <time>1970-01-01T00:00:00+00:00</time>
        <ele>689.0</ele>
      </trkpt>
      <trkpt lat="43.972677" lon="3.249712">
        <time>1970-01-01T00:00:00+00:00</time>
        <ele>688.0</ele>
      </trkpt>
      <trkpt lat="43.972473" lon="3.249668">
        <time>1970-01-01T00:00:00+00:00</time>
        <ele>688.0</ele>
      </trkpt>
      <trkpt lat="43.972211" lon="3.249575">
        <time>1970-01-01T00:00:00+00:00</time>
        <ele>689.0</ele>
      </trkpt>
      <trkpt lat="43.971983" lon="3.249561">
        <time>1970-01-01T00:00:00+00:00</time>
        <ele>690.0</ele>
      </trkpt>
      <trkpt lat="43.972062" lon="3.249046">
        <time>1970-01-01T00:00:00+00:00</time>
        <ele>692.0</ele>
      </trkpt>
      <trkpt lat="43.972304" lon="3.248135">
        <time>1970-01-01T00:00:00+00:00</time>
        <ele>693.0</ele>
      </trkpt>
      <trkpt lat="43.972362" lon="3.247668">
        <time>1970-01-01T00:00:00+00:00</time>
        <ele>693.0</ele>
      </trkpt>
      <trkpt lat="43.972444" lon="3.247281">
        <time>1970-01-01T00:00:00+00:00</time>
        <ele>694.0</ele>
      </trkpt>
      <trkpt lat="43.9726" lon="3.24683">
        <time>1970-01-01T00:00:00+00:00</time>
        <ele>695.0</ele>
      </trkpt>
      <trkpt lat="43.972645" lon="3.246559">
        <time>1970-01-01T00:00:00+00:00</time>
        <ele>697.0</ele>
      </trkpt>
      <trkpt lat="43.972659" lon="3.246344">
        <time>1970-01-01T00:00:00+00:00</time>
        <ele>698.0</ele>
      </trkpt>
      <trkpt lat="43.972943" lon="3.244817">
        <time>1970-01-01T00:00:00+00:00</time>
        <ele>702.0</ele>
      </trkpt>
      <trkpt lat="43.972999" lon="3.244339">
        <time>1970-01-01T00:00:00+00:00</time>
        <ele>702.0</ele>
      </trkpt>
      <trkpt lat="43.97326" lon="3.24304">
        <time>1970-01-01T00:00:00+00:00</time>
        <ele>704.0</ele>
      </trkpt>
      <trkpt lat="43.973269" lon="3.242943">
        <time>1970-01-01T00:00:00+00:00</time>
        <ele>704.0</ele>
      </trkpt>
      <trkpt lat="43.97323" lon="3.242629">
        <time>1970-01-01T00:00:00+00:00</time>
        <ele>704.0</ele>
      </trkpt>
      <trkpt lat="43.97323" lon="3.242451">
        <time>1970-01-01T00:00:00+00:00</time>
        <ele>705.0</ele>
      </trkpt>
      <trkpt lat="43.973281" lon="3.242247">
        <time>1970-01-01T00:00:00+00:00</time>
        <ele>705.0</ele>
      </trkpt>
      <trkpt lat="43.973422" lon="3.241843">
        <time>1970-01-01T00:00:00+00:00</time>
        <ele>705.0</ele>
      </trkpt>
      <trkpt lat="43.973473" lon="3.24153">
        <time>1970-01-01T00:00:00+00:00</time>
        <ele>706.0</ele>
      </trkpt>
      <trkpt lat="43.973571" lon="3.241127">
        <time>1970-01-01T00:00:00+00:00</time>
        <ele>706.0</ele>
      </trkpt>
      <trkpt lat="43.973651" lon="3.240954">
        <time>1970-01-01T00:00:00+00:00</time>
        <ele>706.0</ele>
      </trkpt>
      <trkpt lat="43.973816" lon="3.240816">
        <time>1970-01-01T00:00:00+00:00</time>
        <ele>707.0</ele>
      </trkpt>
      <trkpt lat="43.973904" lon="3.24068">
        <time>1970-01-01T00:00:00+00:00</time>
        <ele>707.0</ele>
      </trkpt>
      <trkpt lat="43.974031" lon="3.240225">
        <time>1970-01-01T00:00:00+00:00</time>
        <ele>708.0</ele>
      </trkpt>
      <trkpt lat="43.974098" lon="3.239709">
        <time>1970-01-01T00:00:00+00:00</time>
        <ele>709.0</ele>
      </trkpt>
      <trkpt lat="43.974126" lon="3.239614">
        <time>1970-01-01T00:00:00+00:00</time>
        <ele>709.0</ele>
      </trkpt>
      <trkpt lat="43.974354" lon="3.239138">
        <time>1970-01-01T00:00:00+00:00</time>
        <ele>708.0</ele>
      </trkpt>
      <trkpt lat="43.974409" lon="3.238961">
        <time>1970-01-01T00:00:00+00:00</time>
        <ele>708.0</ele>
      </trkpt>
      <trkpt lat="43.974393" lon="3.238654">
        <time>1970-01-01T00:00:00+00:00</time>
        <ele>707.0</ele>
      </trkpt>
      <trkpt lat="43.974408" lon="3.238344">
        <time>1970-01-01T00:00:00+00:00</time>
        <ele>705.0</ele>
      </trkpt>
      <trkpt lat="43.9744" lon="3.238113">
        <time>1970-01-01T00:00:00+00:00</time>
        <ele>704.0</ele>
      </trkpt>
      <trkpt lat="43.974436" lon="3.237892">
        <time>1970-01-01T00:00:00+00:00</time>
        <ele>704.0</ele>
      </trkpt>
      <trkpt lat="43.974545" lon="3.237497">
        <time>1970-01-01T00:00:00+00:00</time>
        <ele>705.0</ele>
      </trkpt>
      <trkpt lat="43.974646" lon="3.237367">
        <time>1970-01-01T00:00:00+00:00</time>
        <ele>705.0</ele>
      </trkpt>
      <trkpt lat="43.975423" lon="3.236959">
        <time>1970-01-01T00:00:00+00:00</time>
        <ele>708.0</ele>
      </trkpt>
      <trkpt lat="43.975835" lon="3.236667">
        <time>1970-01-01T00:00:00+00:00</time>
        <ele>709.0</ele>
      </trkpt>
      <trkpt lat="43.976378" lon="3.236459">
        <time>1970-01-01T00:00:00+00:00</time>
        <ele>711.0</ele>
      </trkpt>
      <trkpt lat="43.977098" lon="3.236345">
        <time>1970-01-01T00:00:00+00:00</time>
        <ele>712.0</ele>
      </trkpt>
      <trkpt lat="43.977533" lon="3.236228">
        <time>1970-01-01T00:00:00+00:00</time>
        <ele>713.0</ele>
      </trkpt>
      <trkpt lat="43.977735" lon="3.236112">
        <time>1970-01-01T00:00:00+00:00</time>
        <ele>713.0</ele>
      </trkpt>
      <trkpt lat="43.977795" lon="3.236089">
        <time>1970-01-01T00:00:00+00:00</time>
        <ele>713.0</ele>
      </trkpt>
    </trkseg>
  </trk>
</gpx>
